TITAN 3C TRANSTAGE R/B, 2770

Orbit data source: Space-Track

TITAN 3C TRANSTAGE R/B, 2770 is space debris in HEO originally from a launch on Fri, 28 Apr 1967 UTC launched from the Air Force Eastern Test Range (AFETR). Debris objects in space refer to the collection of defunct objects orbiting the Earth. Examples of debris include non-operational satellites, rocket bodies, and fragments generated from explosions, collisions, or faulty payload assembly.

Loading next visibility...
Identifier
2770, 1967-040F
Orbit
HEO
Last TLE update
2 weeks ago
Origin
Manufacturer
Martin Marietta
Mission
Spacecraft
Bus & Motor
TRANSTAGE, Unknown motor
Mass
3,103 kg wet, 3,103 kg dry
Launch date (UTC)
1967-04-28 (58 years ago)
Launch vehicle
Unknown
Launch site
Air Force Eastern Test Range (AFETR)
Object type
Payload
Rocket body
Debris
Shape & HBR
Cyl + 2 Nozzle, 4.6 m
Radar Cross Section
14.974 m², Large (>1 m²)

Expand to show TLE details & history

TLE from 2 weeks ago
0 TITAN 3C TRANSTAGE R/B
1 02770U 67040F   25114.13712002 -.00000835  00000-0  00000-0 0  9999
2 02770  18.0701 219.3597 7822207 332.3643   0.1912  0.50935766 21189
Epoch: 2025-04-24T03:17Z
Definitive object data (Epoch: 2025-04-24T03:17:27.169Z)
Latitude
-8.89868°
Longitude
-70.899°
Altitude
7,829.8 km
Speed
7.078 km/s
True Right ascension
12h 43m 30s
True Declination
-8° 52' 20"
Sunlit
Object was in full shadow at TLE epoch
Visualization TLE readout
Latitude
3.40997°
Longitude
126.44558°
Altitude
98,288.365 km
Speed
1.264 km/s
Apparent Right ascension
01h 54m 24s
Apparent Declination
1° 07' 40"
Sunlit
Object is in daylight
Visualization observer readout
Local Sidereal Time
14:27:02
Azimuth
12.309° NNE
Elevation
-48.284°
Doppler factor
1
Orbital elements
Apogee altitude
111,662.205 km
Perigee altitude
8,045.858 km
Semi-major axis
66,232.169 km
Eccentricity
0.7822207
Inclination
18.0701°
RAAN
219.3597°
Arg. of periapsis
332.3643°
True anomaly
2.51086°
Mean anomaly
0.1912°
Eccentric anomaly
0.87783°
Mean motion
0.12733 °/min
BSTAR
Unknown
Orbital period
2827.24 mins
Loading maneuver chart data...
Loading SW <> Apogee altitude chart data...
Loading historical data...
Loading historical data...
Loading historical data...
Loading historical data...
Loading historical data...
Loading historical data...
Loading historical data...

TITAN 3C TRANSTAGE R/B Visibility forecast

Observer location: undefined°, undefined°

Span
Click to sort rows by Start time (UTC) header in descending order
Start Az.
Max El. time (UTC)
Max El. Az.
Max El.
End time (UTC)
End Az.
200 mins2025-05-09 15:02:13.722Z110.415° ESE2025-05-09 16:58:13.722Z125.597° SE15.536°2025-05-09 18:22:13.722Z130.657° SE
|